#timestamp,LO_Frequency,Hit,StdDev 
1592204415.3,286047000.6,N
1592204435.1,286047000.5,N
1592204455.9,286046999.7,N
1592204475.7,286047000.4,N
1592204495.6,286047000.3,N
1592204515.4,286047000.7,N
1592204535.2,286046998.4,N
1592204555.1,286047001.2,N
1592204556.0,286047001.2,N
1592204575.8,286047001.0,N
1592204595.6,286047001.0,N
1592204615.5,286047001.2,N
1592204635.3,286047001.2,N
1592204655.2,286047000.8,N
1592204675.9,286046998.1,N
1592204695.7,286047002.8,N
1592204715.6,286047002.3,N
1592204735.4,286047000.6,N
1592204755.2,286047000.6,N
1592204775.1,286047000.6,N
1592204776.0,286047000.6,N
1592204795.8,286046998.2,N
1592204815.7,286047000.5,N
1592204835.5,286047002.8,N
1592204855.3,286046998.6,N
1592204875.2,286047000.8,N
1592204895.9,286046999.1,N
1592204915.7,286046998.7,N
1592204935.6,286046999.2,N
1592204955.4,286046998.9,N
1592204975.2,286047001.2,N
1592204995.1,286046998.2,N
1592204996.0,286046998.2,N
1592205015.8,286047000.1,N
1592205035.7,286047002.6,N
1592205055.5,286046999.9,N
1592205075.3,286047000.9,N
1592205095.2,286047000.1,N
1592205115.0,286047000.2,N
1592205115.9,286047000.2,N
1592205135.8,286047000.1,N
1592205155.6,286047000.2,N
1592205175.4,286047002.8,N
1592205195.3,286047002.4,N
1592205215.1,286047000.5,N
1592205235.8,286047000.7,N
1592205255.7,286047001.1,N
1592205275.5,286047000.7,N
1592205295.4,286046998.1,N
1592205315.2,286047000.9,N
1592205335.0,286046998.3,N
1592205335.9,286046998.3,N
1592205355.8,286047001.0,N
1592205375.6,286047000.7,N
1592205395.4,286047001.0,N
1592205415.3,286047001.2,N
1592205435.1,286047000.9,N
1592205455.8,286047000.6,N
1592205475.7,286046996.5,N
1592205495.5,286046999.2,N
1592205515.4,286046999.2,N
1592205535.2,286046996.8,N
1592205555.0,286046996.9,N
1592205555.9,286046996.9,N
1592205575.8,286046996.9,N
1592205595.6,286046999.5,N
1592205615.4,286046998.9,N
1592205635.3,286046999.5,N
1592205655.1,286046999.4,N
1592205675.9,286046996.8,N
1592205695.7,286046998.9,N
1592205715.5,286046997.0,N
1592205735.4,286046999.4,N
1592205755.2,286046999.0,N
1592205775.0,286046998.5,N
1592205776.0,286046998.5,N
1592205795.8,286046998.3,N
1592205815.6,286046998.2,N
1592205835.5,286046998.2,N
1592205855.3,286046999.2,N
1592205875.1,286046995.7,Y
1592205895.9,286046996.6,P
1592205915.7,286046996.8,N
1592205935.6,286046999.6,N
1592205955.4,286046998.3,N
1592205975.2,286046998.9,N
1592205995.1,286046998.7,N
1592205996.0,286046998.7,N
1592206015.8,286046999.5,N
1592206035.6,286046999.0,N
1592206055.5,286046998.7,N
1592206075.3,286046998.2,N
1592206095.2,286046998.1,N
1592206115.9,286046998.3,N
1592206135.7,286046999.3,N
1592206155.6,286046999.4,N
1592206175.4,286047000.8,N
1592206195.3,286047000.0,N
1592206215.1,286047000.8,N
1592206216.0,286047000.8,N
1592206235.8,286047000.7,N
1592206285.7,286047000.5,E
1592206295.6,286047000.2,N
1592206315.5,286047000.3,P
1592206335.3,286047000.5,P
1592206355.1,286047000.0,N
1592206375.9,286047002.7,Y
1592206395.7,286046999.7,P
1592206415.6,286047001.9,P
1592206435.4,286047001.3,N
1592206455.2,286047004.3,Y
1592206475.1,286047004.3,P
1592206476.0,286047004.3,N
1592206495.8,286047004.4,N
1592206515.7,286047004.1,N
1592206535.5,286047004.2,N
1592206555.3,286047003.1,N
1592206575.2,286047005.6,Y
1592206595.0,286047001.9,P
1592206595.9,286047001.9,N
1592206615.7,286046999.8,N
1592206635.6,286046999.8,N
1592206655.4,286047000.2,N
1592206675.3,286046999.8,N
1592206695.1,286047000.5,N
1592206696.0,286047000.5,N
1592206715.8,286047000.0,N
1592206735.7,286047002.5,N
1592206755.5,286047002.3,N
1592206775.3,286047002.3,N
1592206795.2,286047000.2,N
1592206815.0,286047002.7,N
1592206815.9,286047002.7,N
1592206835.8,286047002.5,N
1592206855.6,286047000.3,N
1592206875.4,286046998.4,N
1592206895.3,286046998.2,N
1592206915.1,286046998.2,N
1592206935.8,286047000.7,N
1592206955.7,286047000.5,N
1592206975.5,286047000.1,N
1592206995.4,286046998.2,N
1592207015.2,286047001.2,N
1592207035.0,286046998.1,N
1592207035.9,286046998.1,N
1592207055.8,286046998.6,N
1592207075.6,286046998.5,N
1592207095.5,286047000.8,N
1592207115.3,286046999.0,N
1592207135.1,286046999.4,N
1592207155.9,286046998.9,N
1592207175.7,286046998.9,N
1592207195.5,286046999.1,N
1592207215.4,286046998.7,N
1592207235.2,286046998.8,N
1592207255.1,286046999.2,N
1592207256.0,286046999.2,N
1592207275.8,286046996.5,N
1592207295.6,286046996.5,N
1592207315.5,286046997.0,N
1592207335.3,286046999.1,N
1592207355.1,286046997.1,N
1592207375.9,286046997.3,N
1592207395.7,286046997.7,N
1592207415.6,286046997.7,N
1592207435.4,286046997.6,N
1592207455.2,286046995.2,Y
1592207475.1,286046995.3,P
1592207476.0,286046995.3,N
1592207495.8,286046997.4,N
1592207515.7,286046997.5,N
1592207535.5,286046994.9,Y
1592207555.3,286046998.3,P
1592207575.2,286046996.6,P
1592207595.0,286046999.6,N
1592207595.9,286046999.6,N
1592207615.7,286046996.5,N
1592207635.6,286046997.4,N
1592207655.4,286046997.8,N
1592207675.3,286046997.6,N
1592207695.1,286046997.9,N
1592207696.0,286046997.9,N
1592207715.8,286046997.5,N
1592207735.7,286046994.9,Y
1592207755.5,286046998.4,P
1592207775.3,286047001.2,P
1592207795.2,286047000.9,N
1592207815.0,286047002.6,N
1592207815.9,286047002.6,N
1592207835.8,286047002.8,N
1592207855.6,286047000.6,N
1592207875.4,286047001.2,N
1592207895.3,286047001.2,N
1592207915.1,286046998.9,N
1592207935.8,286046999.5,N
1592207955.7,286046997.0,N
1592207975.5,286046997.5,N
1592207995.4,286046998.0,N
